CZ-6A DEB

Satellite information

Favourite Embed

Satellite Type and Status

DEBRISIN ORBIT

Key statistics

Satellite CZ-6A DEB at a glance.

Uptime

969

Days in orbit

Revolutions

≈ 14.4

Per day

Orbit

SSO

Sun Synchronous Orbit

Inclination

98.8

Latest

Satellite identification and parameters

Extended collection of information and parameters for CZ-6A DEB.

Object identification

Identified? True

Debris? True

Object name: CZ-6A DEB

International designator: 2022-151LQ

Object number (NORAD): 54564

Object ID (CCSDS): 54564

Country: PEOPLES REPUBLIC OF CHINA (PRC)

Current information (Y/N): Y

RCS size: SMALL

Orbital parameters

Period: 100.156 minutes

Inclination: 98.7633 deg

SMA: 7144.05 km

Apoapsis: 787.424 km

Periapsis: 744.406 km

RAAN: 213.9731 deg

Eccentricy: 0.0030107

Argument of periapsis: 234.422 deg

Mean anomaly: 125.4159 deg

Mean motion: 14.3775881 rev/day

Mean motion (dot): 0.0000466 rev/day2

B* drag term: 0.0015544 1/REarth

Two-line elements (TLE)

Creation date: July 6, 2025, 6:05 p.m.

Reference frame: TEME

Reference center: EARTH

Epoch: July 6, 2025, 11:55 a.m. UTC

TLE line 0: 0 CZ-6A DEB

TLE line 1: 1 54564U 22151LQ 25187.49699828 .00004660 00000-0 15544-2 0 9990

TLE line 2: 2 54564 98.7633 213.9731 0030107 234.4220 125.4159 14.37758810137794

Live tracking on map

Real-time ground track for satellite CZ-6A DEB.

In-orbit conjunctions

A list of the most updated potential collisions computed for object CZ-6A DEB.

Target Orbit TCA Probability of collision Miss distance Type
PSLV DEB SSO 2024-11-13 05:39:34 0.00026055 204.0 (m) DEBRIS
COSMOS 1174 DEB LEO 2024-10-28 11:47:07 0.0001327065 179.0 (m) DEBRIS
FENGYUN 1C DEB SSO 2024-09-26 15:05:48 0.0002034152 831.0 (m) DEBRIS

Associated space launch

Chinese satellite reported for atmospheric/ocean/environmental/spatial parameter research purposes, details TBD.

CZ-6A DEB was lifted into orbit during the mission ‘Long March 6A | Yunhai 3’, on board a Long March 6A space rocket.

The launch took place on Nov. 11, 2022, 10:52 p.m. from Launch Complex 9A.

For more information about the launch, click the button.

Launch to space Long March 6A | Yunhai 3
Long March 6A | Yunhai 3

Agency: N/A

Status: Launch Successful

Launch date: Nov. 11, 2022, 10:52 p.m. UTC

Rocket: Long March 6A

Launch pad: Launch Complex 9A

Location: Taiyuan Satellite Launch Center, People's Republic of China

...

Latest news about this satellite

There are no fresh news available about this satellite. Check back as we update our databases every day.


Newsletter sign-up

Weekly statistics, charts and insights to help you stay on top of the space industry.